owner,sensor,date,latitude,longitude,vertical_datum,sea_water_practical_salinity,qcFlag 
LUMCON,ioos:station:LUMCON:102:1,2017-05-01T00:00:00Z,29.1870,-90.6093,2.61,14.12,1111122 
LUMCON,ioos:station:LUMCON:102:1,2017-05-01T00:15:00Z,29.1870,-90.6093,2.57,14.12,1111122 
LUMCON,ioos:station:LUMCON:102:1,2017-05-01T00:30:00Z,29.1870,-90.6093,2.54,14.1,1111122 
LUMCON,ioos:station:LUMCON:102:1,2017-05-01T00:45:00Z,29.1870,-90.6093,2.51,14.16,1111122 
LUMCON,ioos:station:LUMCON:102:1,2017-05-01T01:00:00Z,29.1870,-90.6093,2.49,14.23,1111122 
LUMCON,ioos:station:LUMCON:102:1,2017-05-01T01:15:00Z,29.1870,-90.6093,2.47,14.19,1111122 
LUMCON,ioos:station:LUMCON:102:1,2017-05-01T01:30:00Z,29.1870,-90.6093,2.48,14.16,1111122 
LUMCON,ioos:station:LUMCON:102:1,2017-05-01T01:45:00Z,29.1870,-90.6093,2.45,14.23,1111122 
LUMCON,ioos:station:LUMCON:102:1,2017-05-01T02:00:00Z,29.1870,-90.6093,2.41,14.18,1111122 
LUMCON,ioos:station:LUMCON:102:1,2017-05-01T02:15:00Z,29.1870,-90.6093,2.41,14.05,1111122 
LUMCON,ioos:station:LUMCON:102:1,2017-05-01T02:30:00Z,29.1870,-90.6093,2.37,13.89,1111122 
LUMCON,ioos:station:LUMCON:102:1,2017-05-01T02:45:00Z,29.1870,-90.6093,2.38,13.83,1111122 
LUMCON,ioos:station:LUMCON:102:1,2017-05-01T03:00:00Z,29.1870,-90.6093,2.36,13.85,1111122 
LUMCON,ioos:station:LUMCON:102:1,2017-05-01T03:15:00Z,29.1870,-90.6093,2.36,13.83,1111122 
LUMCON,ioos:station:LUMCON:102:1,2017-05-01T03:30:00Z,29.1870,-90.6093,2.37,13.84,1111122 
LUMCON,ioos:station:LUMCON:102:1,2017-05-01T03:45:00Z,29.1870,-90.6093,2.34,13.84,1111122 
LUMCON,ioos:station:LUMCON:102:1,2017-05-01T04:00:00Z,29.1870,-90.6093,2.32,13.91,1111122 
LUMCON,ioos:station:LUMCON:102:1,2017-05-01T04:15:00Z,29.1870,-90.6093,2.27,13.85,1111122 
LUMCON,ioos:station:LUMCON:102:1,2017-05-01T04:30:00Z,29.1870,-90.6093,2.28,13.84,1111122 
LUMCON,ioos:station:LUMCON:102:1,2017-05-01T04:45:00Z,29.1870,-90.6093,2.28,13.71,1111122 
LUMCON,ioos:station:LUMCON:102:1,2017-05-01T05:00:00Z,29.1870,-90.6093,2.25,13.67,1111122 
LUMCON,ioos:station:LUMCON:102:1,2017-05-01T05:15:00Z,29.1870,-90.6093,2.22,13.65,1111122 
LUMCON,ioos:station:LUMCON:102:1,2017-05-01T05:30:00Z,29.1870,-90.6093,2.2,13.62,1111122 
LUMCON,ioos:station:LUMCON:102:1,2017-05-01T05:45:00Z,29.1870,-90.6093,2.17,13.58,1111122 
LUMCON,ioos:station:LUMCON:102:1,2017-05-01T06:00:00Z,29.1870,-90.6093,2.16,13.16,1111122 
LUMCON,ioos:station:LUMCON:102:1,2017-05-01T06:15:00Z,29.1870,-90.6093,2.15,13.28,1111122 
LUMCON,ioos:station:LUMCON:102:1,2017-05-01T06:30:00Z,29.1870,-90.6093,2.15,13.36,1111122 
LUMCON,ioos:station:LUMCON:102:1,2017-05-01T06:45:00Z,29.1870,-90.6093,2.15,13.24,1111122 
LUMCON,ioos:station:LUMCON:102:1,2017-05-01T07:00:00Z,29.1870,-90.6093,2.13,13.08,1111122 
LUMCON,ioos:station:LUMCON:102:1,2017-05-01T07:15:00Z,29.1870,-90.6093,2.14,13.02,1111122 
LUMCON,ioos:station:LUMCON:102:1,2017-05-01T07:30:00Z,29.1870,-90.6093,2.15,12.96,1111122 
LUMCON,ioos:station:LUMCON:102:1,2017-05-01T07:45:00Z,29.1870,-90.6093,2.14,12.83,1111122 
LUMCON,ioos:station:LUMCON:102:1,2017-05-01T08:00:00Z,29.1870,-90.6093,2.15,12.78,1111122 
LUMCON,ioos:station:LUMCON:102:1,2017-05-01T08:15:00Z,29.1870,-90.6093,2.15,12.74,1111122 
LUMCON,ioos:station:LUMCON:102:1,2017-05-01T08:30:00Z,29.1870,-90.6093,2.15,12.72,1111122 
LUMCON,ioos:station:LUMCON:102:1,2017-05-01T08:45:00Z,29.1870,-90.6093,2.15,12.79,1111122 
LUMCON,ioos:station:LUMCON:102:1,2017-05-01T09:00:00Z,29.1870,-90.6093,2.18,12.85,1111122 
LUMCON,ioos:station:LUMCON:102:1,2017-05-01T09:15:00Z,29.1870,-90.6093,2.19,12.72,1111122 
LUMCON,ioos:station:LUMCON:102:1,2017-05-01T09:30:00Z,29.1870,-90.6093,2.2,12.75,1111122 
LUMCON,ioos:station:LUMCON:102:1,2017-05-01T09:45:00Z,29.1870,-90.6093,2.23,12.75,1111122 
LUMCON,ioos:station:LUMCON:102:1,2017-05-01T10:00:00Z,29.1870,-90.6093,2.24,12.65,1111122 
LUMCON,ioos:station:LUMCON:102:1,2017-05-01T10:15:00Z,29.1870,-90.6093,2.26,12.46,1111122 
LUMCON,ioos:station:LUMCON:102:1,2017-05-01T10:30:00Z,29.1870,-90.6093,2.27,12.35,1111122 
LUMCON,ioos:station:LUMCON:102:1,2017-05-01T10:45:00Z,29.1870,-90.6093,2.28,12.27,1111122 
LUMCON,ioos:station:LUMCON:102:1,2017-05-01T11:00:00Z,29.1870,-90.6093,2.31,12.18,1111122 
LUMCON,ioos:station:LUMCON:102:1,2017-05-01T11:15:00Z,29.1870,-90.6093,2.34,12.34,1111122 
LUMCON,ioos:station:LUMCON:102:1,2017-05-01T11:30:00Z,29.1870,-90.6093,2.39,12.26,1111122 
LUMCON,ioos:station:LUMCON:102:1,2017-05-01T11:45:00Z,29.1870,-90.6093,2.41,12.33,1111122 
LUMCON,ioos:station:LUMCON:102:1,2017-05-01T12:00:00Z,29.1870,-90.6093,2.43,12.65,1111122 
LUMCON,ioos:station:LUMCON:102:1,2017-05-01T12:15:00Z,29.1870,-90.6093,2.46,12.74,1111122 
LUMCON,ioos:station:LUMCON:102:1,2017-05-01T12:30:00Z,29.1870,-90.6093,2.48,12.75,1111122 
LUMCON,ioos:station:LUMCON:102:1,2017-05-01T12:45:00Z,29.1870,-90.6093,2.5,13.14,1111122 
LUMCON,ioos:station:LUMCON:102:1,2017-05-01T13:00:00Z,29.1870,-90.6093,2.52,13.24,1111122 
LUMCON,ioos:station:LUMCON:102:1,2017-05-01T13:15:00Z,29.1870,-90.6093,2.56,13.38,1111122 
LUMCON,ioos:station:LUMCON:102:1,2017-05-01T13:30:00Z,29.1870,-90.6093,2.56,13.49,1111122 
LUMCON,ioos:station:LUMCON:102:1,2017-05-01T13:45:00Z,29.1870,-90.6093,2.59,13.66,1111122 
LUMCON,ioos:station:LUMCON:102:1,2017-05-01T14:00:00Z,29.1870,-90.6093,2.59,13.53,1111122 
LUMCON,ioos:station:LUMCON:102:1,2017-05-01T14:15:00Z,29.1870,-90.6093,2.59,13.77,1111122 
LUMCON,ioos:station:LUMCON:102:1,2017-05-01T14:30:00Z,29.1870,-90.6093,2.61,13.78,1111122 
LUMCON,ioos:station:LUMCON:102:1,2017-05-01T14:45:00Z,29.1870,-90.6093,2.62,13.85,1111122 
LUMCON,ioos:station:LUMCON:102:1,2017-05-01T15:00:00Z,29.1870,-90.6093,2.62,13.84,1111122 
LUMCON,ioos:station:LUMCON:102:1,2017-05-01T15:15:00Z,29.1870,-90.6093,2.63,13.63,1111122 
LUMCON,ioos:station:LUMCON:102:1,2017-05-01T15:30:00Z,29.1870,-90.6093,2.64,13.73,1111122 
LUMCON,ioos:station:LUMCON:102:1,2017-05-01T15:45:00Z,29.1870,-90.6093,2.64,13.65,1111122 
LUMCON,ioos:station:LUMCON:102:1,2017-05-01T16:00:00Z,29.1870,-90.6093,2.65,13.92,1111122 
LUMCON,ioos:station:LUMCON:102:1,2017-05-01T16:15:00Z,29.1870,-90.6093,2.65,13.91,1111122 
LUMCON,ioos:station:LUMCON:102:1,2017-05-01T16:30:00Z,29.1870,-90.6093,2.66,13.88,1111122 
LUMCON,ioos:station:LUMCON:102:1,2017-05-01T16:45:00Z,29.1870,-90.6093,2.67,13.75,1111122 
LUMCON,ioos:station:LUMCON:102:1,2017-05-01T17:00:00Z,29.1870,-90.6093,2.69,13.82,1111122 
LUMCON,ioos:station:LUMCON:102:1,2017-05-01T17:15:00Z,29.1870,-90.6093,2.7,13.74,1111122 
LUMCON,ioos:station:LUMCON:102:1,2017-05-01T17:30:00Z,29.1870,-90.6093,2.7,13.75,1111122 
LUMCON,ioos:station:LUMCON:102:1,2017-05-01T17:45:00Z,29.1870,-90.6093,2.71,13.7,1111122 
LUMCON,ioos:station:LUMCON:102:1,2017-05-01T18:00:00Z,29.1870,-90.6093,2.71,13.71,1111122 
LUMCON,ioos:station:LUMCON:102:1,2017-05-01T18:15:00Z,29.1870,-90.6093,2.72,13.82,1111122 
LUMCON,ioos:station:LUMCON:102:1,2017-05-01T18:30:00Z,29.1870,-90.6093,2.72,13.82,1111122 
LUMCON,ioos:station:LUMCON:102:1,2017-05-01T18:45:00Z,29.1870,-90.6093,2.73,13.83,1111122 
LUMCON,ioos:station:LUMCON:102:1,2017-05-01T19:00:00Z,29.1870,-90.6093,2.72,13.81,1111122 
LUMCON,ioos:station:LUMCON:102:1,2017-05-01T19:15:00Z,29.1870,-90.6093,2.72,13.76,1111122 
LUMCON,ioos:station:LUMCON:102:1,2017-05-01T19:30:00Z,29.1870,-90.6093,2.7,13.8,1111122 
LUMCON,ioos:station:LUMCON:102:1,2017-05-01T19:45:00Z,29.1870,-90.6093,2.7,13.82,1111122 
LUMCON,ioos:station:LUMCON:102:1,2017-05-01T20:00:00Z,29.1870,-90.6093,2.69,13.83,1111122 
LUMCON,ioos:station:LUMCON:102:1,2017-05-01T20:15:00Z,29.1870,-90.6093,2.68,13.81,1111122 
LUMCON,ioos:station:LUMCON:102:1,2017-05-01T20:30:00Z,29.1870,-90.6093,2.67,13.76,1111122 
LUMCON,ioos:station:LUMCON:102:1,2017-05-01T20:45:00Z,29.1870,-90.6093,2.68,13.78,1111122 
LUMCON,ioos:station:LUMCON:102:1,2017-05-01T21:00:00Z,29.1870,-90.6093,2.66,13.85,1111122 
LUMCON,ioos:station:LUMCON:102:1,2017-05-01T21:15:00Z,29.1870,-90.6093,2.67,13.79,1111122 
LUMCON,ioos:station:LUMCON:102:1,2017-05-01T21:30:00Z,29.1870,-90.6093,2.67,13.95,1111122 
LUMCON,ioos:station:LUMCON:102:1,2017-05-01T21:45:00Z,29.1870,-90.6093,2.66,14.07,1111122 
LUMCON,ioos:station:LUMCON:102:1,2017-05-01T22:00:00Z,29.1870,-90.6093,2.63,14.04,1111122 
LUMCON,ioos:station:LUMCON:102:1,2017-05-01T22:15:00Z,29.1870,-90.6093,2.62,14.16,1111122 
LUMCON,ioos:station:LUMCON:102:1,2017-05-01T22:30:00Z,29.1870,-90.6093,2.61,14.26,1111122 
LUMCON,ioos:station:LUMCON:102:1,2017-05-01T22:45:00Z,29.1870,-90.6093,2.59,14.24,1111122 
LUMCON,ioos:station:LUMCON:102:1,2017-05-01T23:00:00Z,29.1870,-90.6093,2.59,14.2,1111122 
LUMCON,ioos:station:LUMCON:102:1,2017-05-01T23:15:00Z,29.1870,-90.6093,2.59,13.97,1111122 
LUMCON,ioos:station:LUMCON:102:1,2017-05-01T23:30:00Z,29.1870,-90.6093,2.58,13.88,1111122 
LUMCON,ioos:station:LUMCON:102:1,2017-05-01T23:45:00Z,29.1870,-90.6093,2.57,13.77,1111122 
LUMCON,ioos:station:LUMCON:102:1,2017-05-02T00:00:00Z,29.1870,-90.6093,2.58,13.8,1111122 
LUMCON,ioos:station:LUMCON:102:1,2017-05-02T00:15:00Z,29.1870,-90.6093,2.55,13.79,1111122 
LUMCON,ioos:station:LUMCON:102:1,2017-05-02T00:30:00Z,29.1870,-90.6093,2.51,13.67,1111122 
LUMCON,ioos:station:LUMCON:102:1,2017-05-02T00:45:00Z,29.1870,-90.6093,2.5,13.73,1111122 
LUMCON,ioos:station:LUMCON:102:1,2017-05-02T01:00:00Z,29.1870,-90.6093,2.48,13.85,1111122 
LUMCON,ioos:station:LUMCON:102:1,2017-05-02T01:15:00Z,29.1870,-90.6093,2.47,13.86,1111122 
LUMCON,ioos:station:LUMCON:102:1,2017-05-02T01:30:00Z,29.1870,-90.6093,2.46,13.91,1111122 
LUMCON,ioos:station:LUMCON:102:1,2017-05-02T01:45:00Z,29.1870,-90.6093,2.44,13.85,1111122 
LUMCON,ioos:station:LUMCON:102:1,2017-05-02T02:00:00Z,29.1870,-90.6093,2.43,13.77,1111122 
LUMCON,ioos:station:LUMCON:102:1,2017-05-02T02:15:00Z,29.1870,-90.6093,2.42,13.86,1111122 
LUMCON,ioos:station:LUMCON:102:1,2017-05-02T02:30:00Z,29.1870,-90.6093,2.39,13.97,1111122 
LUMCON,ioos:station:LUMCON:102:1,2017-05-02T02:45:00Z,29.1870,-90.6093,2.37,13.75,1111122 
LUMCON,ioos:station:LUMCON:102:1,2017-05-02T03:00:00Z,29.1870,-90.6093,2.37,13.66,1111122 
LUMCON,ioos:station:LUMCON:102:1,2017-05-02T03:15:00Z,29.1870,-90.6093,2.35,13.54,1111122 
LUMCON,ioos:station:LUMCON:102:1,2017-05-02T03:30:00Z,29.1870,-90.6093,2.34,13.49,1111122 
LUMCON,ioos:station:LUMCON:102:1,2017-05-02T03:45:00Z,29.1870,-90.6093,2.32,13.58,1111122 
LUMCON,ioos:station:LUMCON:102:1,2017-05-02T04:00:00Z,29.1870,-90.6093,2.32,13.41,1111122 
LUMCON,ioos:station:LUMCON:102:1,2017-05-02T04:15:00Z,29.1870,-90.6093,2.3,13.32,1111122 
LUMCON,ioos:station:LUMCON:102:1,2017-05-02T04:30:00Z,29.1870,-90.6093,2.3,13.33,1111122 
LUMCON,ioos:station:LUMCON:102:1,2017-05-02T04:45:00Z,29.1870,-90.6093,2.28,13.23,1111122 
LUMCON,ioos:station:LUMCON:102:1,2017-05-02T05:00:00Z,29.1870,-90.6093,2.29,13.19,1111122 
LUMCON,ioos:station:LUMCON:102:1,2017-05-02T05:15:00Z,29.1870,-90.6093,2.3,13.21,1111122 
LUMCON,ioos:station:LUMCON:102:1,2017-05-02T05:30:00Z,29.1870,-90.6093,2.29,13.18,1111122 
LUMCON,ioos:station:LUMCON:102:1,2017-05-02T05:45:00Z,29.1870,-90.6093,2.28,13.13,1111122 
LUMCON,ioos:station:LUMCON:102:1,2017-05-02T06:00:00Z,29.1870,-90.6093,2.28,13.06,1111122 
LUMCON,ioos:station:LUMCON:102:1,2017-05-02T06:15:00Z,29.1870,-90.6093,2.27,12.98,1111122 
LUMCON,ioos:station:LUMCON:102:1,2017-05-02T06:30:00Z,29.1870,-90.6093,2.27,12.97,1111122 
LUMCON,ioos:station:LUMCON:102:1,2017-05-02T06:45:00Z,29.1870,-90.6093,2.26,12.9,1111122 
LUMCON,ioos:station:LUMCON:102:1,2017-05-02T07:00:00Z,29.1870,-90.6093,2.28,12.78,1111122 
LUMCON,ioos:station:LUMCON:102:1,2017-05-02T07:15:00Z,29.1870,-90.6093,2.28,12.83,1111122 
LUMCON,ioos:station:LUMCON:102:1,2017-05-02T07:30:00Z,29.1870,-90.6093,2.28,12.76,1111122 
LUMCON,ioos:station:LUMCON:102:1,2017-05-02T07:45:00Z,29.1870,-90.6093,2.29,12.78,1111122 
LUMCON,ioos:station:LUMCON:102:1,2017-05-02T08:00:00Z,29.1870,-90.6093,2.3,12.73,1111122 
LUMCON,ioos:station:LUMCON:102:1,2017-05-02T08:15:00Z,29.1870,-90.6093,2.3,12.77,1111122 
LUMCON,ioos:station:LUMCON:102:1,2017-05-02T08:30:00Z,29.1870,-90.6093,2.3,12.71,1111122 
LUMCON,ioos:station:LUMCON:102:1,2017-05-02T08:45:00Z,29.1870,-90.6093,2.31,12.83,1111122 
LUMCON,ioos:station:LUMCON:102:1,2017-05-02T09:00:00Z,29.1870,-90.6093,2.31,12.99,1111122 
LUMCON,ioos:station:LUMCON:102:1,2017-05-02T09:15:00Z,29.1870,-90.6093,2.34,12.94,1111122 
LUMCON,ioos:station:LUMCON:102:1,2017-05-02T09:30:00Z,29.1870,-90.6093,2.34,13.02,1111122 
LUMCON,ioos:station:LUMCON:102:1,2017-05-02T09:45:00Z,29.1870,-90.6093,2.36,12.97,1111122 
LUMCON,ioos:station:LUMCON:102:1,2017-05-02T10:00:00Z,29.1870,-90.6093,2.36,13.12,1111122 
LUMCON,ioos:station:LUMCON:102:1,2017-05-02T10:15:00Z,29.1870,-90.6093,2.36,13.38,1111122 
LUMCON,ioos:station:LUMCON:102:1,2017-05-02T10:30:00Z,29.1870,-90.6093,2.39,13.43,1111122 
LUMCON,ioos:station:LUMCON:102:1,2017-05-02T10:45:00Z,29.1870,-90.6093,2.42,13.41,1111122 
LUMCON,ioos:station:LUMCON:102:1,2017-05-02T11:00:00Z,29.1870,-90.6093,2.44,13.31,1111122 
LUMCON,ioos:station:LUMCON:102:1,2017-05-02T11:15:00Z,29.1870,-90.6093,2.44,13.32,1111122 
LUMCON,ioos:station:LUMCON:102:1,2017-05-02T11:30:00Z,29.1870,-90.6093,2.46,13.36,1111122 
LUMCON,ioos:station:LUMCON:102:1,2017-05-02T11:45:00Z,29.1870,-90.6093,2.48,13.29,1111122 
LUMCON,ioos:station:LUMCON:102:1,2017-05-02T12:00:00Z,29.1870,-90.6093,2.5,13.12,1111122 
LUMCON,ioos:station:LUMCON:102:1,2017-05-02T12:15:00Z,29.1870,-90.6093,2.52,13.1,1111122 
LUMCON,ioos:station:LUMCON:102:1,2017-05-02T12:30:00Z,29.1870,-90.6093,2.54,13.15,1111122 
LUMCON,ioos:station:LUMCON:102:1,2017-05-02T12:45:00Z,29.1870,-90.6093,2.55,13.18,1111122 
LUMCON,ioos:station:LUMCON:102:1,2017-05-02T13:00:00Z,29.1870,-90.6093,2.56,13.21,1111122 
LUMCON,ioos:station:LUMCON:102:1,2017-05-02T13:15:00Z,29.1870,-90.6093,2.58,13.24,1111122 
LUMCON,ioos:station:LUMCON:102:1,2017-05-02T13:30:00Z,29.1870,-90.6093,2.6,13.22,1111122 
LUMCON,ioos:station:LUMCON:102:1,2017-05-02T13:45:00Z,29.1870,-90.6093,2.61,13.14,1111122 
LUMCON,ioos:station:LUMCON:102:1,2017-05-02T14:00:00Z,29.1870,-90.6093,2.63,13.21,1111122 
LUMCON,ioos:station:LUMCON:102:1,2017-05-02T14:15:00Z,29.1870,-90.6093,2.65,13.24,1111122 
LUMCON,ioos:station:LUMCON:102:1,2017-05-02T14:30:00Z,29.1870,-90.6093,2.65,13.22,1111122 
LUMCON,ioos:station:LUMCON:102:1,2017-05-02T14:45:00Z,29.1870,-90.6093,2.67,13.1,1111122 
LUMCON,ioos:station:LUMCON:102:1,2017-05-02T15:00:00Z,29.1870,-90.6093,2.67,13.12,1111122 
LUMCON,ioos:station:LUMCON:102:1,2017-05-02T15:15:00Z,29.1870,-90.6093,2.69,13.4,1111122 
LUMCON,ioos:station:LUMCON:102:1,2017-05-02T15:30:00Z,29.1870,-90.6093,2.69,13.32,1111122 
LUMCON,ioos:station:LUMCON:102:1,2017-05-02T15:45:00Z,29.1870,-90.6093,2.7,13.32,1111122 
LUMCON,ioos:station:LUMCON:102:1,2017-05-02T16:00:00Z,29.1870,-90.6093,2.7,13.25,1111122 
LUMCON,ioos:station:LUMCON:102:1,2017-05-02T16:15:00Z,29.1870,-90.6093,2.7,13.29,1111122 
LUMCON,ioos:station:LUMCON:102:1,2017-05-02T16:30:00Z,29.1870,-90.6093,2.71,13.3,1111122 
LUMCON,ioos:station:LUMCON:102:1,2017-05-02T16:45:00Z,29.1870,-90.6093,2.71,13.33,1111122 
LUMCON,ioos:station:LUMCON:102:1,2017-05-02T17:00:00Z,29.1870,-90.6093,2.72,13.3,1111122 
LUMCON,ioos:station:LUMCON:102:1,2017-05-02T17:15:00Z,29.1870,-90.6093,2.72,13.36,1111122 
LUMCON,ioos:station:LUMCON:102:1,2017-05-02T17:30:00Z,29.1870,-90.6093,2.73,13.42,1111122 
LUMCON,ioos:station:LUMCON:102:1,2017-05-02T17:45:00Z,29.1870,-90.6093,2.73,13.35,1111122 
LUMCON,ioos:station:LUMCON:102:1,2017-05-02T18:00:00Z,29.1870,-90.6093,2.73,13.26,1111122 
LUMCON,ioos:station:LUMCON:102:1,2017-05-02T18:15:00Z,29.1870,-90.6093,2.72,13.37,1111122 
LUMCON,ioos:station:LUMCON:102:1,2017-05-02T18:30:00Z,29.1870,-90.6093,2.71,13.34,1111122 
LUMCON,ioos:station:LUMCON:102:1,2017-05-02T18:45:00Z,29.1870,-90.6093,2.73,13.32,1111122 
LUMCON,ioos:station:LUMCON:102:1,2017-05-02T19:00:00Z,29.1870,-90.6093,2.73,13.41,1111122 
LUMCON,ioos:station:LUMCON:102:1,2017-05-02T19:15:00Z,29.1870,-90.6093,2.72,13.39,1111122 
LUMCON,ioos:station:LUMCON:102:1,2017-05-02T19:30:00Z,29.1870,-90.6093,2.72,13.29,1111122 
LUMCON,ioos:station:LUMCON:102:1,2017-05-02T19:45:00Z,29.1870,-90.6093,2.71,13.24,1111122 
LUMCON,ioos:station:LUMCON:102:1,2017-05-02T20:00:00Z,29.1870,-90.6093,2.71,13.42,1111122 
LUMCON,ioos:station:LUMCON:102:1,2017-05-02T20:15:00Z,29.1870,-90.6093,2.69,13.32,1111122 
LUMCON,ioos:station:LUMCON:102:1,2017-05-02T20:30:00Z,29.1870,-90.6093,2.7,13.4,1111122 
LUMCON,ioos:station:LUMCON:102:1,2017-05-02T20:45:00Z,29.1870,-90.6093,2.7,13.36,1111122 
LUMCON,ioos:station:LUMCON:102:1,2017-05-02T21:00:00Z,29.1870,-90.6093,2.7,13.36,1111122 
LUMCON,ioos:station:LUMCON:102:1,2017-05-02T21:15:00Z,29.1870,-90.6093,2.7,13.41,1111122 
LUMCON,ioos:station:LUMCON:102:1,2017-05-02T21:30:00Z,29.1870,-90.6093,2.7,13.47,1111122 
LUMCON,ioos:station:LUMCON:102:1,2017-05-02T21:45:00Z,29.1870,-90.6093,2.71,13.59,1111122 
LUMCON,ioos:station:LUMCON:102:1,2017-05-02T22:00:00Z,29.1870,-90.6093,2.68,13.77,1111122 
LUMCON,ioos:station:LUMCON:102:1,2017-05-02T22:15:00Z,29.1870,-90.6093,2.69,13.72,1111122 
LUMCON,ioos:station:LUMCON:102:1,2017-05-02T22:30:00Z,29.1870,-90.6093,2.69,13.74,1111122 
LUMCON,ioos:station:LUMCON:102:1,2017-05-02T22:45:00Z,29.1870,-90.6093,2.68,13.87,1111122 
LUMCON,ioos:station:LUMCON:102:1,2017-05-02T23:00:00Z,29.1870,-90.6093,2.68,13.93,1111122 
LUMCON,ioos:station:LUMCON:102:1,2017-05-02T23:15:00Z,29.1870,-90.6093,2.68,14.25,1111122 
LUMCON,ioos:station:LUMCON:102:1,2017-05-02T23:30:00Z,29.1870,-90.6093,2.67,14.23,1111122 
LUMCON,ioos:station:LUMCON:102:1,2017-05-02T23:45:00Z,29.1870,-90.6093,2.65,14.23,1111122 
LUMCON,ioos:station:LUMCON:102:1,2017-05-03T00:00:00Z,29.1870,-90.6093,2.64,14.27,1111122 
LUMCON,ioos:station:LUMCON:102:1,2017-05-03T00:15:00Z,29.1870,-90.6093,2.64,14.18,1111122 
LUMCON,ioos:station:LUMCON:102:1,2017-05-03T00:30:00Z,29.1870,-90.6093,2.63,14.2,1111122 
LUMCON,ioos:station:LUMCON:102:1,2017-05-03T00:45:00Z,29.1870,-90.6093,2.61,14.32,1111122 
LUMCON,ioos:station:LUMCON:102:1,2017-05-03T01:00:00Z,29.1870,-90.6093,2.62,14.07,1111122 
LUMCON,ioos:station:LUMCON:102:1,2017-05-03T01:15:00Z,29.1870,-90.6093,2.62,14.01,1111122 
LUMCON,ioos:station:LUMCON:102:1,2017-05-03T01:30:00Z,29.1870,-90.6093,2.6,14.0,1111122 
LUMCON,ioos:station:LUMCON:102:1,2017-05-03T01:45:00Z,29.1870,-90.6093,2.59,14.01,1111122 
LUMCON,ioos:station:LUMCON:102:1,2017-05-03T02:00:00Z,29.1870,-90.6093,2.59,13.91,1111122 
LUMCON,ioos:station:LUMCON:102:1,2017-05-03T02:15:00Z,29.1870,-90.6093,2.58,13.99,1111122 
LUMCON,ioos:station:LUMCON:102:1,2017-05-03T02:30:00Z,29.1870,-90.6093,2.56,13.97,1111122 
LUMCON,ioos:station:LUMCON:102:1,2017-05-03T02:45:00Z,29.1870,-90.6093,2.56,13.3,1111122 
LUMCON,ioos:station:LUMCON:102:1,2017-05-03T03:00:00Z,29.1870,-90.6093,2.54,13.69,1111122 
LUMCON,ioos:station:LUMCON:102:1,2017-05-03T03:15:00Z,29.1870,-90.6093,2.53,13.77,1111122 
LUMCON,ioos:station:LUMCON:102:1,2017-05-03T03:30:00Z,29.1870,-90.6093,2.52,13.52,1111122 
LUMCON,ioos:station:LUMCON:102:1,2017-05-03T03:45:00Z,29.1870,-90.6093,2.51,13.38,1111122 
LUMCON,ioos:station:LUMCON:102:1,2017-05-03T04:00:00Z,29.1870,-90.6093,2.51,13.58,1111122 
LUMCON,ioos:station:LUMCON:102:1,2017-05-03T04:15:00Z,29.1870,-90.6093,2.5,13.64,1111122 
LUMCON,ioos:station:LUMCON:102:1,2017-05-03T04:30:00Z,29.1870,-90.6093,2.49,13.63,1111122 
LUMCON,ioos:station:LUMCON:102:1,2017-05-03T04:45:00Z,29.1870,-90.6093,2.49,13.69,1111122 
LUMCON,ioos:station:LUMCON:102:1,2017-05-03T05:00:00Z,29.1870,-90.6093,2.46,13.65,1111122 
LUMCON,ioos:station:LUMCON:102:1,2017-05-03T05:15:00Z,29.1870,-90.6093,2.45,13.57,1111122 
LUMCON,ioos:station:LUMCON:102:1,2017-05-03T05:30:00Z,29.1870,-90.6093,2.45,13.52,1111122 
LUMCON,ioos:station:LUMCON:102:1,2017-05-03T05:45:00Z,29.1870,-90.6093,2.43,13.51,1111122 
LUMCON,ioos:station:LUMCON:102:1,2017-05-03T06:00:00Z,29.1870,-90.6093,2.43,13.38,1111122 
LUMCON,ioos:station:LUMCON:102:1,2017-05-03T06:15:00Z,29.1870,-90.6093,2.42,13.28,1111122 
LUMCON,ioos:station:LUMCON:102:1,2017-05-03T06:30:00Z,29.1870,-90.6093,2.42,13.22,1111122 
LUMCON,ioos:station:LUMCON:102:1,2017-05-03T06:45:00Z,29.1870,-90.6093,2.41,13.29,1111122 
LUMCON,ioos:station:LUMCON:102:1,2017-05-03T07:00:00Z,29.1870,-90.6093,2.42,13.2,1111122 
LUMCON,ioos:station:LUMCON:102:1,2017-05-03T07:15:00Z,29.1870,-90.6093,2.41,13.27,1111122 
LUMCON,ioos:station:LUMCON:102:1,2017-05-03T07:30:00Z,29.1870,-90.6093,2.4,13.21,1111122 
LUMCON,ioos:station:LUMCON:102:1,2017-05-03T07:45:00Z,29.1870,-90.6093,2.41,13.27,1111122 
LUMCON,ioos:station:LUMCON:102:1,2017-05-03T08:00:00Z,29.1870,-90.6093,2.41,13.32,1111122 
LUMCON,ioos:station:LUMCON:102:1,2017-05-03T08:15:00Z,29.1870,-90.6093,2.4,13.27,1111122 
LUMCON,ioos:station:LUMCON:102:1,2017-05-03T08:30:00Z,29.1870,-90.6093,2.4,13.51,1111122 
LUMCON,ioos:station:LUMCON:102:1,2017-05-03T08:45:00Z,29.1870,-90.6093,2.4,13.63,1111122 
LUMCON,ioos:station:LUMCON:102:1,2017-05-03T09:00:00Z,29.1870,-90.6093,2.41,13.57,1111122 
LUMCON,ioos:station:LUMCON:102:1,2017-05-03T09:15:00Z,29.1870,-90.6093,2.43,13.56,1111122 
LUMCON,ioos:station:LUMCON:102:1,2017-05-03T09:30:00Z,29.1870,-90.6093,2.42,13.43,1111122 
LUMCON,ioos:station:LUMCON:102:1,2017-05-03T09:45:00Z,29.1870,-90.6093,2.43,13.42,1111122 
LUMCON,ioos:station:LUMCON:102:1,2017-05-03T10:00:00Z,29.1870,-90.6093,2.44,13.41,1111122 
LUMCON,ioos:station:LUMCON:102:1,2017-05-03T10:15:00Z,29.1870,-90.6093,2.44,13.41,1111122 
LUMCON,ioos:station:LUMCON:102:1,2017-05-03T10:30:00Z,29.1870,-90.6093,2.46,13.38,1111122 
LUMCON,ioos:station:LUMCON:102:1,2017-05-03T10:45:00Z,29.1870,-90.6093,2.46,13.31,1111122 
LUMCON,ioos:station:LUMCON:102:1,2017-05-03T11:00:00Z,29.1870,-90.6093,2.47,13.71,1111122 
LUMCON,ioos:station:LUMCON:102:1,2017-05-03T11:15:00Z,29.1870,-90.6093,2.47,13.66,1111122 
LUMCON,ioos:station:LUMCON:102:1,2017-05-03T11:30:00Z,29.1870,-90.6093,2.49,13.72,1111122 
LUMCON,ioos:station:LUMCON:102:1,2017-05-03T11:45:00Z,29.1870,-90.6093,2.49,13.75,1111122 
LUMCON,ioos:station:LUMCON:102:1,2017-05-03T12:00:00Z,29.1870,-90.6093,2.51,13.69,1111122 
LUMCON,ioos:station:LUMCON:102:1,2017-05-03T12:15:00Z,29.1870,-90.6093,2.52,13.6,1111122 
LUMCON,ioos:station:LUMCON:102:1,2017-05-03T12:30:00Z,29.1870,-90.6093,2.54,13.58,1111122 
LUMCON,ioos:station:LUMCON:102:1,2017-05-03T12:45:00Z,29.1870,-90.6093,2.55,13.5,1111122 
LUMCON,ioos:station:LUMCON:102:1,2017-05-03T13:00:00Z,29.1870,-90.6093,2.59,13.58,1111122 
LUMCON,ioos:station:LUMCON:102:1,2017-05-03T13:15:00Z,29.1870,-90.6093,2.59,13.44,1111122 
LUMCON,ioos:station:LUMCON:102:1,2017-05-03T13:30:00Z,29.1870,-90.6093,2.61,13.54,1111122 
LUMCON,ioos:station:LUMCON:102:1,2017-05-03T13:45:00Z,29.1870,-90.6093,2.65,13.52,1111122 
LUMCON,ioos:station:LUMCON:102:1,2017-05-03T14:00:00Z,29.1870,-90.6093,2.66,13.52,1111122 
LUMCON,ioos:station:LUMCON:102:1,2017-05-03T14:15:00Z,29.1870,-90.6093,2.67,13.57,1111122 
LUMCON,ioos:station:LUMCON:102:1,2017-05-03T14:30:00Z,29.1870,-90.6093,2.68,13.67,1111122 
LUMCON,ioos:station:LUMCON:102:1,2017-05-03T14:45:00Z,29.1870,-90.6093,2.71,13.64,1111122 
LUMCON,ioos:station:LUMCON:102:1,2017-05-03T15:00:00Z,29.1870,-90.6093,2.72,13.81,1111122 
LUMCON,ioos:station:LUMCON:102:1,2017-05-03T15:15:00Z,29.1870,-90.6093,2.72,14.0,1111122 
LUMCON,ioos:station:LUMCON:102:1,2017-05-03T15:30:00Z,29.1870,-90.6093,2.73,14.0,1111122 
LUMCON,ioos:station:LUMCON:102:1,2017-05-03T15:45:00Z,29.1870,-90.6093,2.73,13.99,1111122 
LUMCON,ioos:station:LUMCON:102:1,2017-05-03T16:00:00Z,29.1870,-90.6093,2.75,14.09,1111122 
LUMCON,ioos:station:LUMCON:102:1,2017-05-03T16:15:00Z,29.1870,-90.6093,2.76,14.02,1111122 
LUMCON,ioos:station:LUMCON:102:1,2017-05-03T16:30:00Z,29.1870,-90.6093,2.81,13.97,1111122 
LUMCON,ioos:station:LUMCON:102:1,2017-05-03T16:45:00Z,29.1870,-90.6093,2.8,14.08,1111122 
LUMCON,ioos:station:LUMCON:102:1,2017-05-03T17:00:00Z,29.1870,-90.6093,2.77,14.04,1111122 
LUMCON,ioos:station:LUMCON:102:1,2017-05-03T17:15:00Z,29.1870,-90.6093,2.77,14.0,1111122 
LUMCON,ioos:station:LUMCON:102:1,2017-05-03T17:30:00Z,29.1870,-90.6093,2.76,14.23,1111122 